Weather Roundup
Issued by NWS

Home | Current Version | Previous Version | Graphics & Text | Print | Product List | Glossary Off
Versions: 1 2 3 4 5 6 7 8 9 10 11 12 13 14 15 16 17 18 19 20 21 22 23 24 25 26 27 28 29 30 31 32 33 34 35 36 37 38 39 40 41 42 43 44 45 46 47 48 49 50

000
NZUS93 KARX 010710
HRRWXR

CURRENT HOURLY OBSERVATIONS ACROSS
MUCH OF THE UPPER MISSISSIPPI VALLEY
NATIONAL WEATHER SERVICE LA CROSSE WI
200 AM CDT TUE SEP 01 2015


...SOUTHEAST MINNESOTA...


CITY           SKY/WX    TMP DP  RH WIND       PRES   REMARKS
ROCHESTER      CLEAR     69  68  96 S7        29.97F FOG
ROCHESTER/MAYO FAIR      73  73 100 S6        29.96F
WINONA         CLEAR     72  70  94 CALM      29.95S
AUSTIN         CLEAR     72  72 100 S3        29.96F FOG
ALBERT LEA     CLEAR     68  68 100 CALM      29.96S FOG
DODGE CENTER   MOCLDY    70  68  94 S6        29.96F FOG
PRESTON        CLEAR     71  68  91 S6        29.98S
OWATONNA       CLEAR     70  66  88 S6        29.95S
FARIBAULT      CLEAR     66  66 100 S6        29.94F FOG
$$

...ELSEWHERE IN MINNESOTA...


CITY           SKY/WX    TMP DP  RH WIND       PRES   REMARKS
MINNEAPOLIS    MOCLDY    74  69  85 S6        29.91F
INTNL FALLS    MOCLDY    64  62  93 W5        29.86R
DULUTH         MOCLDY    71  68  90 SW9       29.90R
RED WING       MOCLDY    70  68  94 CALM      29.92F FOG
REDWOOD FALLS  MOCLDY    71  67  87 S8        29.90F
MANKATO        CLEAR     68  64  88 S6        29.93S
WORTHINGTON    CLEAR     68  63  83 S8        29.93F
FAIRMONT       CLEAR     63  57  82 S5        29.94S
$$

...SOUTHWEST WISCONSIN...


CITY           SKY/WX    TMP DP  RH WIND       PRES   REMARKS
LA CROSSE      PTCLDY    72  70  93 S5        29.95F
PRAIRIE DU CHI CLEAR     72  69  89 E5        29.97S
BOSCOBEL       CLEAR     69  68  96 CALM      29.98F FOG
LONE ROCK      PTCLDY    70  67  90 E3        30.00S
PLATTEVILLE    PTCLDY    72  70  96 SE6       30.00S
FORT MC COY    MOCLDY    68  66  94 CALM      29.98S FOG
CAMP DOUGLAS   CLEAR     69  69 100 S8        29.98F
VIROQUA          N/A     70  70 100 SE5       30.00S
WIS DELLS      CLEAR     69  65  88 S7        30.00S
$$

...ELSEWHERE IN WISCONSIN...


CITY           SKY/WX    TMP DP  RH WIND       PRES   REMARKS
MILWAUKEE      CLEAR     69  65  86 S5        30.03F
MADISON        CLEAR     72  67  84 S3        30.01S
GREEN BAY      CLEAR     67  65  93 S3        30.00F FOG
EAU CLAIRE     CLOUDY    73  70  90 S7        29.94S
BLACK RVR FLS  FOG       63  63 100 CALM      29.96F VSB 1/4
MEDFORD        PTCLDY    66  66  99 S6        30.00S FOG
WAUSAU         CLEAR     68  66  93 S5        29.98F FOG
WIS RAPIDS     CLEAR     68  65  90 S5        30.00F
MARSHFIELD     FOG       66  62  87 S7        29.99F VSB 3/4
RICE LAKE      FOG       68  66  95 CALM      29.95F VSB 1
$$

...NORTHEAST IOWA...


CITY           SKY/WX    TMP DP  RH WIND       PRES   REMARKS
DECORAH        CLOUDY    72  72 100 S6        29.97S
MASON CITY     FOG       65  65 100 S3        29.97F VSB 1/4
CHARLES CITY   FOG       70  70 100 S5        29.98S VSB 3/4
OELWEIN        CLEAR     70  70 100 S6        29.99S FOG
$$

...ELSEWHERE IN IOWA...


CITY           SKY/WX    TMP DP  RH WIND       PRES   REMARKS
DES MOINES     PTCLDY    73  68  84 S8        29.95F
IOWA CITY      CLEAR     71  69  93 CALM      29.99F FOG
FORT DODGE     CLEAR     68  66  94 SE5       29.95F
$$

...NORTHERN ILLINOIS...


CITY           SKY/WX    TMP DP  RH WIND       PRES   REMARKS
CHICAGO-OHARE  PTCLDY    71  68  90 S3        30.03F
CHICAGO-MIDWAY PTCLDY    76  69  79 S5        30.04S
MOLINE         CLEAR     75  70  84 S6        30.00S
ROCKFORD       CLEAR     70  67  90 S3        30.04S
PEORIA         CLEAR     76  70  82 S6        30.04S
$$

NOTE: "FAIR" INDICATES FEW OR NO CLOUDS BELOW 12,000 FEET WITH NO
SIGNIFICANT WEATHER AND/OR OBSTRUCTIONS TO VISIBILITY. WIND
SPEEDS ARE IN MILES-PER-HOUR.



USA.gov is the U.S. government's official web portal to all federal, state and local government web resources and services.